Content
SEND FEEDBACK

Daily
Averages
Monthly
Summary
Algeria

TAMANRASSET, ALGERIA


Home > Africa > Algeria
Elevation: 1402 meters     Latitude: 22 47N     Longitude: 005 31E

WEATHER
 
SELECT A DAY
Number of Records: 288,651;   Date Range: 7/1/96 - 8/31/14
 
SHARE

PRINT THIS DATA

[ ← Previous Day ]
WEATHER ALMANAC - 31 JANUARY, 2013
[ Next Day → ]
[ °F ]   °C
Weather ElementAverageHighLow
Temperature15.2 °C23 °C (3:00 pm)8 °C (1:30 am)
Dewpoint-13.4 °C-7 °C (12:30 am)-18 °C (7:00 am)
Humidity13.2 %32 % (2:00 am)4 % (10:00 am)
Barometer1027.1 hPa1029.1 hPa (9:00 pm)1025.1 hPa (3:30 pm)
Wind Speed22.7 km/h48.1 km/h (1:00 pm)
Weather ElementAverage
Visibility28 km
Wind DirectionENE (68.3 °)

Weather ElementTotal
Precipitation---
Heating Degree Days2.8 (Base 18.3)
Growing Degree Days5.5 (Base 10)
Averaged from 53 records on 31 January, 2013
WEATHER CONDITIONS BREAKOUT
WIND DIRECTION BREAKOUT
WEATHER BY HOUR - 31 JANUARY, 2013
[ °F ]   °C
Local TimeTemperatureDewpointHumidityBarometerVisibilityWind DirectionWind SpeedGust SpeedPrecipitationEventsConditions
12:30 AM10 °C-7 °C30 %1028.1 hPaNE (50°)16.7 km/hClear
1:00 AM9.4 °C-8.3 °C16 %19.3 kmNNE (30°)14.8 km/h
1:00 AM9 °C-8 °C30 %1027.1 hPaNNE (30°)14.8 km/hClear
1:30 AM8 °C-9 °C29 %1027.1 hPaNE (40°)18.5 km/hClear
2:00 AM8 °C-8 °C32 %1027.1 hPaNE (40°)7.4 km/hClear
2:30 AM12 °C-11 °C19 %1027.1 hPaNNE (20°)11.1 km/hClear
3:00 AM11 °C-13 °C18 %1027.1 hPaVariable3.7 km/hClear
3:30 AM11 °C-15 °C15 %1027.1 hPaENE (70°)20.4 km/hClear
4:00 AM8.3 °C-15 °C8 %25.7 kmENE (70°)18.5 km/h
4:00 AM9 °C-15 °C17 %1026.1 hPaENE (70°)18.5 km/hClear
4:30 AM10 °C-15 °C16 %1026.1 hPaENE (60°)22.2 km/hClear
5:00 AM15 °C-15 °C12 %1026.1 hPaENE (60°)11.1 km/hClear
5:30 AM9 °C-15 °C17 %1026.1 hPaSSW (210°)9.3 km/hClear
6:00 AM9 °C-15 °C17 %1026.1 hPaVariable7.4 km/hClear
7:00 AM9.4 °C-17.8 °C5 %25.7 kmENE (70°)14.8 km/h
7:00 AM9 °C-18 °C13 %1026.1 hPaENE (70°)14.8 km/hClear
7:30 AM9 °C-17 °C15 %1027.1 hPaESE (110°)9.3 km/hClear
8:00 AM12 °C-18 °C11 %1026.1 hPaENE (70°)31.5 km/hClear
8:30 AM13 °C-18 °C10 %1026.1 hPaEast (80°)35.2 km/hClear
9:00 AM15 °C-18 °C9 %1027.1 hPaEast (80°)37 km/hClear
9:30 AM17 °C-18 °C8 %1027.1 hPaNE (50°)40.7 km/hClear
10:00 AM17.8 °C-17.2 °C4 %30.6 kmEast (80°)44.4 km/h
10:00 AM18 °C-17 °C8 %1028.1 hPaEast (80°)44.4 km/hClear
10:30 AM19 °C-18 °C7 %1028.1 hPaEast (80°)44.4 km/hClear
11:00 AM20 °C-17 °C7 %1028.1 hPaEast (80°)42.6 km/hClear
11:30 AM20 °C-16 °C8 %1028.1 hPaEast (80°)42.6 km/hClear
12:00 PM21 °C-16 °C7 %1028.1 hPaEast (80°)46.3 km/hClear
12:30 PM21 °C-14 °C9 %1028.1 hPaEast (80°)44.4 km/hClear
1:00 PM21.7 °C-13.9 °C4 %30.6 kmEast (80°)48.1 km/h
1:00 PM22 °C-14 °C8 %1027.1 hPaEast (80°)48.1 km/hClear
1:30 PM22 °C-14 °C8 %1027.1 hPaENE (70°)40.7 km/hClear
2:00 PM22 °C-13 °C9 %1026.1 hPaEast (90°)42.6 km/hClear
2:30 PM22 °C-13 °C9 %1026.1 hPaEast (80°)37 km/hClear
3:00 PM23 °C-13 °C8 %1026.1 hPaENE (70°)38.9 km/h
3:30 PM23 °C-12 °C9 %1025.1 hPaEast (80°)38.9 km/hClear
4:00 PM22.2 °C-11.7 °C4 %30.6 kmEast (100°)27.8 km/h
4:00 PM23 °C-12 °C9 %1026.1 hPaEast (100°)27.8 km/hClear
4:30 PM23 °C-12 °C9 %1026.1 hPaEast (100°)22.2 km/hClear
5:00 PM22 °C-12 °C9 %1026.1 hPaEast (100°)20.4 km/hClear
5:30 PM22 °C-13 °C9 %1026.1 hPaESE (110°)20.4 km/hClear
6:00 PM21 °C-12 °C10 %1026.1 hPaESE (110°)14.8 km/hClear
6:30 PM19 °C-13 °C11 %1027.1 hPaESE (110°)9.3 km/hClear
7:00 PM17.2 °C-12.2 °C5 %30.6 kmESE (110°)13 km/h
7:00 PM17 °C-12 °C13 %1027.1 hPaESE (110°)13 km/hClear
8:00 PM14 °C-11 °C17 %1028.1 hPaEast (100°)14.8 km/hClear
8:30 PM14 °C-11 °C17 %1028.1 hPaESE (120°)11.1 km/hClear
9:00 PM13 °C-11 °C18 %1029.1 hPaVariable3.7 km/hClear
9:30 PM12 °C-12 °C18 %1029.1 hPaVariable3.7 km/hClear
10:00 PM10.6 °C-12.8 °C9 %30.6 kmNorth1.9 km/h
10:00 PM11 °C-13 °C18 %1029.1 hPaVariable1.9 km/hClear
10:30 PM10 °C-12 °C20 %1029.1 hPaCalmClear
11:00 PM10 °C-10 °C24 %1029.1 hPaVariable3.7 km/hClear
11:30 PM10 °C-9 °C26 %1029.1 hPaENE (60°)7.4 km/hClear
Hourly data recorded from DAAT, located 0 kilometers away from Tamanrasset, Algeria







STORIES FROM OUR PARTNERS